Alva, OK

9:05 AM CDT on August 27, 2016 (GMT -0500)
Alva Regional

Weather History for KAVK - January, 2014

Change the Weather History Date:

Tuesday, January 14, 2014

  Actual Average Record
Temperature  
Mean Temperature 41 °F -  
Max Temperature 50 °F 46 °F 73 °F (1990)
Min Temperature 32 °F 21 °F -5 °F (1979)
Degree Days  
Heating Degree Days 24    
Moisture  
Dew Point 19 °F    
Average Humidity 41    
Maximum Humidity 65    
Minimum Humidity 20    
Precipitation  
Precipitation 0.00 in - - ()
Sea Level Pressure  
Sea Level Pressure 30.17 in    
Wind  
Wind Speed 15 mph (NNW)    
Max Wind Speed 29 mph    
Max Gust Speed 36 mph    
Visibility 10 miles    
Events      
Averages and records for this station are not official NWS values.
T = Trace of Precipitation, MM = Missing Value Source: NWS Daily Summary

Daily Weather History Graph

Daily Weather History Graph

Search for Another Location

Airport or City:

Trip Planner

Search our weather history database for the weather conditions in past years. The results will help you decide how hot, cold, wet, or windy it might be!

Date:

Astronomy

Jan. 14, 2014 Rise Set
Actual Time 7:46 AM CST 5:41 PM CST
Civil Twilight 7:18 AM CST 6:09 PM CST
Nautical Twilight 6:46 AM CST 6:41 PM CST
Astronomical Twilight 6:15 AM CST 7:12 PM CST
Moon 4:47 PM CST (1/14) 6:22 AM CST (1/14)
Length of Visible Light 10h 51m
Length of Day
9h 54m
Waxing Gibbous, 98% of the Moon is Illuminated
Jan 14
Waxing Gibbous
Jan 15
Full
Jan 23
Last Quarter
Jan 30
New
Feb 6
First Quarter

Hourly Weather History & Observations

Time (CST) Temp. Windchill Dew Point Humidity Pressure Visibility Wind Dir Wind Speed Gust Speed Precip Events Conditions
12:10 AM 35.6 °F 27.5 °F 14.0 °F 41% 29.91 in 10.0 mi WSW 11.5 mph - N/A   Mostly Cloudy
12:30 AM 35.6 °F 27.1 °F 14.0 °F 41% 29.91 in 10.0 mi WSW 12.7 mph - N/A   Scattered Clouds
12:50 AM 39.2 °F 30.5 °F 12.2 °F 33% 29.90 in 10.0 mi WSW 16.1 mph - N/A   Mostly Cloudy
1:10 AM 39.2 °F 30.5 °F 14.0 °F 36% 29.90 in 10.0 mi WSW 16.1 mph - N/A   Overcast
1:30 AM 41.0 °F 34.3 °F 14.0 °F 33% 29.90 in 10.0 mi WNW 11.5 mph 21.9 mph N/A   Overcast
1:50 AM 42.8 °F 37.0 °F 14.0 °F 31% 29.91 in 10.0 mi WNW 10.4 mph 16.1 mph N/A   Overcast
2:10 AM 42.8 °F 36.6 °F 14.0 °F 31% 29.92 in 10.0 mi WNW 11.5 mph 17.3 mph N/A   Overcast
2:30 AM 44.6 °F 38.8 °F 14.0 °F 29% 29.92 in 10.0 mi WNW 11.5 mph 17.3 mph N/A   Overcast
2:50 AM 44.6 °F 37.8 °F 14.0 °F 29% 29.92 in 10.0 mi WNW 15.0 mph - N/A   Overcast
3:10 AM 41.0 °F 33.9 °F 14.0 °F 33% 29.93 in 10.0 mi WNW 12.7 mph - N/A   Mostly Cloudy
3:30 AM 39.2 °F 33.0 °F 15.8 °F 39% 29.93 in 10.0 mi WNW 9.2 mph - N/A   Mostly Cloudy
3:50 AM 39.2 °F 32.5 °F 15.8 °F 39% 29.93 in 10.0 mi West 10.4 mph - N/A   Mostly Cloudy
4:10 AM 39.2 °F 32.0 °F 15.8 °F 39% 29.94 in 10.0 mi West 11.5 mph - N/A   Mostly Cloudy
4:30 AM 39.2 °F 32.0 °F 17.6 °F 42% 29.95 in 10.0 mi WNW 11.5 mph - N/A   Scattered Clouds
4:50 AM 39.2 °F 32.5 °F 17.6 °F 42% 29.96 in 10.0 mi WNW 10.4 mph - N/A   Partly Cloudy
5:10 AM 41.0 °F 34.3 °F 19.4 °F 42% 29.96 in 10.0 mi NW 11.5 mph - N/A   Scattered Clouds
5:30 AM 44.6 °F 39.7 °F 23.0 °F 43% 29.97 in 10.0 mi NW 9.2 mph - N/A   Overcast
5:50 AM 48.2 °F - 24.8 °F 40% 29.98 in 10.0 mi NNW 17.3 mph 23.0 mph N/A   Overcast
6:10 AM 50.0 °F - 26.6 °F 40% 30.00 in 10.0 mi NNW 17.3 mph 24.2 mph N/A   Mostly Cloudy
6:30 AM 48.2 °F - 28.4 °F 46% 30.01 in 10.0 mi NNW 15.0 mph 23.0 mph N/A   Mostly Cloudy
6:50 AM 50.0 °F - 28.4 °F 43% 30.02 in 10.0 mi NNW 18.4 mph 24.2 mph N/A   Mostly Cloudy
7:10 AM 50.0 °F - 32.0 °F 50% 30.02 in 10.0 mi NNW 13.8 mph 17.3 mph N/A   Mostly Cloudy
7:30 AM 50.0 °F - 30.2 °F 47% 30.03 in 10.0 mi North 15.0 mph - N/A   Overcast
7:50 AM 50.0 °F - 30.2 °F 47% 30.05 in 10.0 mi North 23.0 mph 29.9 mph N/A   Overcast
8:10 AM 50.0 °F - 30.2 °F 47% 30.08 in 10.0 mi North 19.6 mph 28.8 mph N/A   Scattered Clouds
8:30 AM 48.2 °F - 30.2 °F 50% 30.11 in 10.0 mi North 18.4 mph 28.8 mph N/A   Partly Cloudy
8:50 AM 46.4 °F 39.2 °F 28.4 °F 50% 30.13 in 10.0 mi NNE 18.4 mph 25.3 mph N/A   Mostly Cloudy
9:10 AM 46.4 °F 40.4 °F 28.4 °F 50% 30.14 in 10.0 mi North 13.8 mph - N/A   Mostly Cloudy
9:30 AM 46.4 °F 39.0 °F 28.4 °F 50% 30.16 in 10.0 mi North 19.6 mph 28.8 mph N/A   Scattered Clouds
9:50 AM 46.4 °F 38.5 °F 26.6 °F 46% 30.18 in 10.0 mi North 21.9 mph 29.9 mph N/A   Scattered Clouds
10:10 AM 46.4 °F 39.0 °F 28.4 °F 50% 30.20 in 10.0 mi North 19.6 mph - N/A   Clear
10:30 AM 48.2 °F - 28.4 °F 46% 30.20 in 10.0 mi North 23.0 mph 32.2 mph N/A   Clear
10:50 AM 48.2 °F - 26.6 °F 43% 30.21 in 10.0 mi North 25.3 mph 32.2 mph N/A   Clear
11:10 AM 46.4 °F 38.5 °F 26.6 °F 46% 30.23 in 10.0 mi North 21.9 mph 33.4 mph N/A   Partly Cloudy
11:30 AM 46.4 °F 37.4 °F 24.8 °F 43% 30.23 in 10.0 mi North 28.8 mph 35.7 mph N/A   Partly Cloudy
11:50 AM 46.4 °F 38.1 °F 17.6 °F 32% 30.23 in 10.0 mi North 24.2 mph 34.5 mph N/A   Clear
12:10 PM 46.4 °F 37.9 °F 15.8 °F 29% 30.22 in 10.0 mi North 25.3 mph 34.5 mph N/A   Clear
12:30 PM 46.4 °F 38.5 °F 15.8 °F 29% 30.23 in 10.0 mi North 21.9 mph 33.4 mph N/A   Clear
12:50 PM 46.4 °F 38.3 °F 17.6 °F 32% 30.22 in 10.0 mi North 23.0 mph 29.9 mph N/A   Clear
1:10 PM 48.2 °F - 12.2 °F 24% 30.23 in 10.0 mi North 27.6 mph 33.4 mph N/A   Clear
1:30 PM 46.4 °F 38.1 °F 14.0 °F 27% 30.24 in 10.0 mi North 24.2 mph 31.1 mph N/A   Clear
1:50 PM 48.2 °F - 10.4 °F 22% 30.24 in 10.0 mi North 19.6 mph 34.5 mph N/A   Clear
2:10 PM 46.4 °F 38.5 °F 8.6 °F 22% 30.25 in 10.0 mi North 21.9 mph 31.1 mph N/A   Clear
2:30 PM 46.4 °F 38.5 °F 10.4 °F 23% 30.27 in 10.0 mi North 21.9 mph 25.3 mph N/A   Clear
2:50 PM 46.4 °F 38.7 °F 10.4 °F 23% 30.28 in 10.0 mi North 20.7 mph 31.1 mph N/A   Clear
3:10 PM 46.4 °F 39.2 °F 12.2 °F 25% 30.28 in 10.0 mi North 18.4 mph 26.5 mph N/A   Clear
3:30 PM 46.4 °F 39.5 °F 12.2 °F 25% 30.28 in 10.0 mi NNW 17.3 mph 26.5 mph N/A   Clear
3:50 PM 46.4 °F 39.5 °F 14.0 °F 27% 30.28 in 10.0 mi NNW 17.3 mph 21.9 mph N/A   Clear
4:10 PM 46.4 °F 39.5 °F 12.2 °F 25% 30.29 in 10.0 mi NNW 17.3 mph 25.3 mph N/A   Clear
4:30 PM 46.4 °F 39.0 °F 8.6 °F 22% 30.30 in 10.0 mi North 19.6 mph 28.8 mph N/A   Clear
4:50 PM 46.4 °F 38.7 °F 6.8 °F 20% 30.30 in 10.0 mi North 20.7 mph 29.9 mph N/A   Clear
5:10 PM 44.6 °F 37.2 °F 8.6 °F 23% 30.31 in 10.0 mi NNW 17.3 mph 24.2 mph N/A   Clear
5:30 PM 42.8 °F 37.0 °F 8.6 °F 25% 30.32 in 10.0 mi NNW 10.4 mph - N/A   Clear
5:50 PM 41.0 °F 33.9 °F 8.6 °F 26% 30.32 in 10.0 mi NNW 12.7 mph - N/A   Clear
6:10 PM 39.2 °F 33.0 °F 10.4 °F 31% 30.32 in 10.0 mi NW 9.2 mph - N/A   Partly Cloudy
6:30 PM 35.6 °F 28.0 °F 10.4 °F 35% 30.33 in 10.0 mi NW 10.4 mph - N/A   Mostly Cloudy
6:50 PM 35.6 °F 28.6 °F 12.2 °F 38% 30.34 in 10.0 mi NW 9.2 mph - N/A   Overcast
7:10 PM 33.8 °F 26.4 °F 14.0 °F 44% 30.34 in 10.0 mi NW 9.2 mph - N/A   Scattered Clouds
7:30 PM 35.6 °F 28.0 °F 15.8 °F 44% 30.34 in 10.0 mi NW 10.4 mph - N/A   Clear
7:50 PM 33.8 °F 25.8 °F 15.8 °F 48% 30.34 in 10.0 mi NW 10.4 mph - N/A   Clear
8:10 PM 32.0 °F 23.6 °F 17.6 °F 55% 30.34 in 10.0 mi WNW 10.4 mph - N/A   Clear
8:30 PM 32.0 °F 23.6 °F 19.4 °F 60% 30.35 in 10.0 mi NW 10.4 mph - N/A   Partly Cloudy
8:50 PM 32.0 °F 23.0 °F 21.2 °F 64% 30.34 in 10.0 mi NW 11.5 mph - N/A   Partly Cloudy
9:10 PM 35.6 °F 27.1 °F 23.0 °F 60% 30.34 in 10.0 mi NW 12.7 mph - N/A   Clear
9:30 PM 35.6 °F 25.5 °F 23.0 °F 60% 30.34 in 10.0 mi NW 17.3 mph - N/A   Clear
9:50 PM 35.6 °F 26.6 °F 23.0 °F 60% 30.34 in 10.0 mi NNW 13.8 mph - N/A   Clear
10:10 PM 33.8 °F 24.8 °F 23.0 °F 65% 30.34 in 10.0 mi NW 12.7 mph - N/A   Clear
10:30 PM 33.8 °F 24.8 °F 23.0 °F 65% 30.34 in 10.0 mi NW 12.7 mph 18.4 mph N/A   Clear
10:50 PM 33.8 °F 23.9 °F 23.0 °F 65% 30.35 in 10.0 mi NW 15.0 mph - N/A   Clear
11:10 PM 33.8 °F 24.8 °F 23.0 °F 65% 30.35 in 10.0 mi NW 12.7 mph - N/A   Clear
11:30 PM 32.0 °F 23.6 °F 21.2 °F 64% 30.34 in 10.0 mi NW 10.4 mph - N/A   Clear
11:50 PM 32.0 °F 23.6 °F 21.2 °F 64% 30.34 in 10.0 mi NNW 10.4 mph - N/A   Partly Cloudy